星链-1195 (STARLINK-1195 )

导读

STARLINK-1195是美国太空探索技术公司SpaceX星链卫星星座中的一员,于2020年1月29日发射入轨,承担低轨卫星互联网组网任务,为全球提供高速互联网接入服务,提升偏远地区网络覆盖,推动卫星互联网发展,目前已在太空运行多年,是星链计划较早部署的卫星之一。

Basic Information
目录编号:
45102
目录名称:
STARLINK-1195
国际标识:
2020-006BL
轨道中心:
EARTH
卫星名称:
星链-1195
卫星全名:
星链-1195 (STARLINK-1195 )
卫星状态:
已陨落 最后检测时间 2024-02-15
发射日期:
2020-01-29 UTC
国别 :
美国 (US)
星等 :
--
Orbit Information
数据来源 国际轨道数据
星历时间: 2024-02-15T12:42:53+0800
轨道信息已过期850天
半长轴: 6537.775km
偏心率: 0.0005122
轨道倾角: 53.025°
近地点辐角 262.630°
升交点赤经 333.297°
平近点角 210.545°
近地点: 156.291km
远地点: 162.989km
周期: 87.681分钟
每日圈数: 16.423202
Detailed Information
固有亮度:
5
最大亮度:
2.5
卫星平台:
Starlink V1.0
覆盖范围:
全球
运营商:
太空探索技术公司
运营商所在国:
美国
制造商(研发单位):
太空探索技术公司
制造商所在国:
美国
使用方式:
暂无
Satellite Introduction
星链(Starlink)计划是由太空探索技术公司(SpaceX)提出的一个巨型低轨卫星互联网星座项目,计划在2019年至2024年间在太空搭建由约1.2万颗卫星组成的“星链”网络,其中1584颗将部署在地球上空550千米处的近地轨道,并从2020年开始工作。该卫星已陨落。